| time (UTC) | temp F | wind direction | speed knots | gust knots | rain 1hr in | rain 24hr in | rain mn in | humidity % | barometer mb |
| 20260506135527 | 46 | 261 | 3.5 | 6.1 | 0.08 | 0.73 | 0.36 | 94 | 1008.1 |
| 20260506134611 | 46 | 262 | 2.6 | 4.3 | 0.08 | 0.72 | 0.35 | 94 | 1007.9 |
| 20260506133516 | 46 | 297 | 4.3 | 6.1 | 0.08 | 0.71 | 0.34 | 94 | 1008.1 |
| 20260506132520 | 46 | 291 | 2.6 | 5.2 | 0.07 | 0.69 | 0.32 | 94 | 1008.2 |
| 20260506131523 | 46 | 266 | 3.5 | 5.2 | 0.08 | 0.69 | 0.32 | 94 | 1008.2 |
| 20260506130521 | 46 | 288 | 3.5 | 8.7 | 0.08 | 0.67 | 0.30 | 94 | 1008.0 |
| 20260506125519 | 46 | 280 | 3.5 | 6.1 | 0.07 | 0.65 | 0.28 | 93 | 1008.2 |
| 20260506124516 | 46 | 273 | 2.6 | 5.2 | 0.07 | 0.64 | 0.27 | 93 | 1008.1 |
| 20260506123540 | 46 | 280 | 3.5 | 5.2 | 0.06 | 0.63 | 0.26 | 93 | 1008.0 |
| 20260506122523 | 46 | 234 | 4.3 | 6.1 | 0.05 | 0.62 | 0.25 | 93 | 1007.9 |
| 20260506121527 | 48 | 279 | 3.5 | 5.2 | 0.04 | 0.61 | 0.24 | 93 | 1007.9 |
| 20260506120531 | 48 | 179 | 2.6 | 3.5 | 0.02 | 0.59 | 0.22 | 92 | 1008.1 |
| 20260506115516 | 48 | 212 | 2.6 | 5.2 | 0.01 | 0.58 | 0.21 | 92 | 1008.3 |
| 20260506114520 | 48 | 242 | 3.5 | 4.3 | 0.00 | 0.57 | 0.20 | 92 | 1008.0 |
| 20260506113544 | 49 | 228 | 3.5 | 5.2 | 0.00 | 0.57 | 0.20 | 91 | 1007.8 |
| 20260506112527 | 49 | 209 | 3.5 | 6.1 | 0.00 | 0.57 | 0.20 | 91 | 1007.6 |
| 20260506111531 | 49 | 227 | 3.5 | 5.2 | 0.00 | 0.57 | 0.20 | 91 | 1007.5 |
| 20260506110517 | 49 | 230 | 2.6 | 5.2 | 0.00 | 0.57 | 0.20 | 91 | 1007.1 |
| 20260506105520 | 49 | 192 | 2.6 | 5.2 | 0.00 | 0.57 | 0.20 | 91 | 1006.9 |
| 20260506104524 | 49 | 229 | 3.5 | 4.3 | 0.00 | 0.57 | 0.20 | 91 | 1006.5 |
| 20260506103528 | 49 | 204 | 2.6 | 4.3 | 0.00 | 0.57 | 0.20 | 91 | 1006.5 |
| 20260506102531 | 49 | 232 | 3.5 | 5.2 | 0.00 | 0.64 | 0.20 | 91 | 1006.5 |
| 20260506101517 | 50 | 213 | 3.5 | 4.3 | 0.00 | 0.64 | 0.20 | 91 | 1006.6 |
| 20260506100541 | 50 | 212 | 3.5 | 5.2 | 0.00 | 0.64 | 0.20 | 91 | 1006.5 |
| 20260506095524 | 50 | 196 | 2.6 | 4.3 | 0.00 | 0.64 | 0.20 | 91 | 1006.7 |
| 20260506094528 | 50 | 209 | 3.5 | 5.2 | 0.00 | 0.64 | 0.20 | 90 | 1006.5 |
| 20260506093531 | 50 | 196 | 1.7 | 3.5 | 0.00 | 0.64 | 0.20 | 90 | 1006.5 |
| 20260506092517 | 50 | 218 | 2.6 | 4.3 | 0.00 | 0.64 | 0.20 | 90 | 1006.6 |
| 20260506091521 | 50 | 227 | 2.6 | 4.3 | 0.00 | 0.64 | 0.20 | 90 | 1006.8 |
| 20260506090524 | 50 | 236 | 3.5 | 7.0 | 0.00 | 0.64 | 0.20 | 90 | 1006.9 |
| 20260506085522 | 50 | 192 | 4.3 | 7.8 | 0.00 | 0.64 | 0.20 | 90 | 1006.5 |
| 20260506084540 | 50 | 243 | 3.5 | 5.2 | 0.00 | 0.64 | 0.20 | 90 | 1006.1 |
| 20260506083517 | 51 | 198 | 3.5 | 5.2 | 0.00 | 0.64 | 0.20 | 90 | 1006.1 |
| 20260506082535 | 51 | 237 | 2.6 | 4.3 | 0.00 | 0.64 | 0.20 | 90 | 1006.1 |
| 20260506081525 | 51 | 220 | 3.5 | 5.2 | 0.00 | 0.64 | 0.20 | 90 | 1006.0 |
| 20260506080528 | 51 | 220 | 3.5 | 5.2 | 0.00 | 0.64 | 0.20 | 90 | 1005.8 |
| 20260506073521 | 51 | 208 | 5.2 | 9.6 | 0.00 | 0.64 | 0.20 | 90 | 1005.5 |
| 20260506072525 | 52 | 197 | 4.3 | 7.0 | 0.00 | 0.64 | 0.20 | 90 | 1005.5 |
| 20260506071529 | 52 | 221 | 5.2 | 8.7 | 0.00 | 0.64 | 0.20 | 90 | 1005.5 |
| 20260506070532 | 52 | 215 | 4.3 | 6.1 | 0.00 | 0.64 | 0.20 | 90 | 1005.1 |
| 20260506061515 | 53 | 243 | 4.3 | 7.0 | 0.00 | 0.64 | 0.20 | 89 | 1005.0 |
| 20260506060518 | 53 | 221 | 5.2 | 7.8 | 0.00 | 0.64 | 0.20 | 89 | 1004.8 |
| 20260506050522 | 54 | 205 | 5.2 | 7.0 | 0.00 | 0.64 | 0.20 | 88 | 1004.2 |
| 20260506044523 | 54 | 239 | 4.3 | 7.0 | 0.00 | 0.64 | 0.20 | 93 | 1003.8 |
| 20260506043515 | 54 | 196 | 3.5 | 5.2 | 0.00 | 0.64 | 0.20 | 94 | 1003.8 |
| 20260506042518 | 54 | 238 | 2.6 | 5.2 | 0.00 | 0.64 | 0.20 | 94 | 1003.8 |
| 20260506041516 | 54 | 246 | 3.5 | 6.1 | 0.00 | 0.64 | 0.20 | 94 | 1003.7 |
| 20260506040526 | 54 | 269 | 3.5 | 4.3 | 0.00 | 0.64 | 0.20 | 94 | 1003.2 |
| 20260506035529 | 54 | 301 | 2.6 | 4.3 | 0.00 | 0.64 | 0.20 | 95 | 1003.2 |
| 20260506034515 | 54 | 261 | 2.6 | 4.3 | 0.00 | 0.64 | 0.20 | 95 | 1002.8 |
| 20260506033519 | 54 | 223 | 3.5 | 5.2 | 0.00 | 0.64 | 0.20 | 96 | 1002.8 |
| 20260506032523 | 54 | 216 | 3.5 | 5.2 | 0.00 | 0.64 | 0.20 | 96 | 1002.7 |
| 20260506031526 | 54 | 216 | 2.6 | 3.5 | 0.00 | 0.64 | 0.20 | 96 | 1002.6 |
| 20260506030530 | 54 | 206 | 2.6 | 3.5 | 0.00 | 0.64 | 0.20 | 96 | 1002.3 |
| 20260506025516 | 55 | 225 | 2.6 | 4.3 | 0.00 | 0.64 | 0.20 | 96 | 1002.3 |
| 20260506024519 | 55 | 246 | 1.7 | 2.6 | 0.00 | 0.64 | 0.20 | 96 | 1002.1 |
| 20260506023523 | 55 | 224 | 2.6 | 3.5 | 0.01 | 0.64 | 0.20 | 96 | 1002.0 |
| 20260506022547 | 55 | 268 | 2.6 | 4.3 | 0.04 | 0.64 | 0.20 | 96 | 1001.8 |
| 20260506021530 | 56 | 201 | 2.6 | 3.5 | 0.08 | 0.64 | 0.20 | 96 | 1001.6 |
| 20260506020516 | 56 | 209 | 1.7 | 4.3 | 0.08 | 0.64 | 0.20 | 96 | 1001.3 |
| 20260506015519 | 56 | 218 | 1.7 | 3.5 | 0.10 | 0.64 | 0.20 | 96 | 1001.5 |
| 20260506014523 | 56 | 167 | 0.0 | 0.9 | 0.16 | 0.64 | 0.20 | 96 | 1001.8 |
| 20260506013526 | 56 | 203 | 0.0 | 1.7 | 0.17 | 0.63 | 0.19 | 96 | 1001.7 |
| 20260506012530 | 56 | 236 | 2.6 | 3.5 | 0.14 | 0.60 | 0.16 | 95 | 1001.5 |
| 20260506011516 | 56 | 211 | 1.7 | 4.3 | 0.10 | 0.56 | 0.12 | 95 | 1001.0 |
| 20260506010520 | 57 | 215 | 2.6 | 4.3 | 0.10 | 0.56 | 0.12 | 95 | 1001.3 |
| 20260506005523 | 57 | 240 | 2.6 | 4.3 | 0.08 | 0.54 | 0.10 | 94 | 1001.0 |
| 20260506004527 | 57 | 296 | 1.7 | 3.5 | 0.04 | 0.48 | 0.04 | 94 | 1000.8 |
| 20260506003524 | 57 | 203 | 0.9 | 1.7 | 0.02 | 0.46 | 0.02 | 93 | 1000.3 |
| 20260506002516 | 57 | 0.0 | 0.0 | 0.02 | 0.46 | 0.02 | 93 | 1000.0 | |
| 20260506001520 | 57 | 0.0 | 0.0 | 0.02 | 0.46 | 0.02 | 92 | 1000.3 | |
| 20260506000517 | 57 | 270 | 0.9 | 2.6 | 0.02 | 0.46 | 0.02 | 91 | 1000.0 |
| 20260505235515 | 58 | 222 | 1.7 | 2.6 | 0.02 | 0.46 | 0.02 | 91 | 1000.3 |
| 20260505234531 | 58 | 232 | 1.7 | 3.5 | 0.00 | 0.44 | 0.00 | 90 | 999.6 |
| 20260505233516 | 58 | 212 | 2.6 | 4.3 | 0.01 | 0.44 | 0.00 | 90 | 999.5 |
| 20260505232520 | 58 | 235 | 2.6 | 4.3 | 0.01 | 0.44 | 0.00 | 90 | 999.6 |
| 20260505231524 | 58 | 234 | 2.6 | 4.3 | 0.01 | 0.44 | 0.00 | 89 | 999.7 |
| 20260505230548 | 58 | 207 | 2.6 | 4.3 | 0.05 | 0.44 | 0.00 | 89 | 999.7 |
| 20260505225551 | 59 | 242 | 2.6 | 4.3 | 0.05 | 0.44 | 0.44 | 88 | 998.8 |
| 20260505224536 | 59 | 190 | 2.6 | 4.3 | 0.05 | 0.44 | 0.44 | 87 | 998.8 |
| 20260505223600 | 59 | 204 | 1.7 | 2.6 | 0.05 | 0.43 | 0.43 | 86 | 998.7 |
| 20260505222524 | 59 | 209 | 1.7 | 4.3 | 0.05 | 0.43 | 0.43 | 84 | 998.4 |
| 20260505221527 | 60 | 253 | 3.5 | 6.1 | 0.05 | 0.43 | 0.43 | 82 | 998.3 |
| 20260505220531 | 60 | 241 | 2.6 | 6.1 | 0.01 | 0.39 | 0.39 | 81 | 998.1 |
| 20260505215537 | 60 | 220 | 5.2 | 7.0 | 0.01 | 0.39 | 0.39 | 80 | 998.1 |
| 20260505214520 | 61 | 230 | 6.1 | 7.0 | 0.01 | 0.39 | 0.39 | 78 | 997.5 |
| 20260505213524 | 62 | 262 | 6.1 | 8.7 | 0.00 | 0.38 | 0.38 | 75 | 997.8 |
| 20260505212528 | 64 | 273 | 7.8 | 13.0 | 0.00 | 0.38 | 0.38 | 72 | 997.5 |
| 20260505211532 | 70 | 309 | 11.3 | 16.5 | 0.00 | 0.38 | 0.38 | 67 | 995.8 |
| 20260505210537 | 72 | 228 | 9.6 | 13.0 | 0.01 | 0.38 | 0.38 | 67 | 996.0 |
| 20260505205541 | 72 | 237 | 9.6 | 18.2 | 0.01 | 0.38 | 0.38 | 67 | 995.4 |
| 20260505204524 | 73 | 248 | 11.3 | 17.4 | 0.01 | 0.38 | 0.38 | 68 | 995.9 |
| 20260505203528 | 73 | 259 | 11.3 | 19.1 | 0.01 | 0.38 | 0.38 | 70 | 995.4 |
| 20260505202525 | 73 | 206 | 11.3 | 17.4 | 0.01 | 0.38 | 0.38 | 71 | 995.2 |
| 20260505201517 | 73 | 209 | 8.7 | 13.9 | 0.01 | 0.38 | 0.38 | 73 | 995.7 |
| 20260505200521 | 72 | 214 | 8.7 | 13.0 | 0.00 | 0.37 | 0.37 | 76 | 995.8 |
| 20260505195519 | 70 | 219 | 7.0 | 11.3 | 0.00 | 0.37 | 0.37 | 78 | 996.0 |
| 20260505194516 | 69 | 205 | 6.1 | 13.0 | 0.00 | 0.37 | 0.37 | 80 | 996.5 |
| 20260505193532 | 69 | 223 | 5.2 | 8.7 | 0.00 | 0.37 | 0.37 | 81 | 996.5 |
| 20260505192517 | 70 | 219 | 5.2 | 9.6 | 0.00 | 0.37 | 0.37 | 82 | 996.5 |
| 20260505191521 | 69 | 215 | 5.2 | 8.7 | 0.00 | 0.37 | 0.37 | 83 | 996.5 |
| 20260505190545 | 67 | 188 | 3.5 | 6.1 | 0.00 | 0.37 | 0.37 | 86 | 996.5 |
| 20260505185529 | 64 | 170 | 3.5 | 5.2 | 0.00 | 0.37 | 0.37 | 89 | 997.1 |
| 20260505184532 | 63 | 288 | 0.9 | 1.7 | 0.01 | 0.37 | 0.37 | 90 | 997.1 |
| 20260505183518 | 61 | 124 | 0.0 | 1.7 | 0.01 | 0.37 | 0.37 | 91 | 997.2 |
| 20260505182522 | 60 | 135 | 0.0 | 1.7 | 0.04 | 0.37 | 0.37 | 91 | 997.4 |
| 20260505181525 | 59 | 123 | 1.7 | 3.5 | 0.09 | 0.37 | 0.37 | 91 | 997.5 |
| 20260505180529 | 59 | 148 | 0.0 | 1.7 | 0.10 | 0.37 | 0.37 | 91 | 997.9 |
| 20260505175533 | 58 | 145 | 1.7 | 3.5 | 0.10 | 0.37 | 0.37 | 90 | 998.2 |
| 20260505174538 | 59 | 227 | 1.7 | 2.6 | 0.09 | 0.36 | 0.36 | 88 | 997.9 |
| 20260505173522 | 59 | 259 | 1.7 | 3.5 | 0.09 | 0.36 | 0.36 | 87 | 997.8 |
| 20260505172525 | 59 | 260 | 2.6 | 4.3 | 0.11 | 0.33 | 0.33 | 86 | 997.7 |
| 20260505171529 | 60 | 297 | 2.6 | 4.3 | 0.21 | 0.28 | 0.28 | 84 | 997.5 |
| 20260505170532 | 60 | 282 | 2.6 | 3.5 | 0.20 | 0.27 | 0.27 | 83 | 997.4 |
| 20260505165518 | 61 | 307 | 2.6 | 2.6 | 0.20 | 0.27 | 0.27 | 82 | 997.6 |
| 20260505164522 | 61 | 261 | 2.6 | 4.3 | 0.20 | 0.27 | 0.27 | 80 | 998.1 |
| 20260505163525 | 62 | 241 | 3.5 | 5.2 | 0.20 | 0.27 | 0.27 | 78 | 998.1 |
| 20260505162529 | 64 | 237 | 4.3 | 7.8 | 0.15 | 0.22 | 0.22 | 73 | 998.2 |
| 20260505161527 | 64 | 189 | 4.3 | 6.1 | 0.00 | 0.07 | 0.07 | 73 | 998.0 |
| 20260505160518 | 64 | 186 | 2.6 | 6.1 | 0.00 | 0.07 | 0.07 | 73 | 998.3 |
| 20260505152515 | 66 | 226 | 7.0 | 11.3 | 0.00 | 0.09 | 0.07 | 71 | 998.2 |
| 20260505151518 | 67 | 168 | 7.8 | 11.3 | 0.00 | 0.11 | 0.07 | 70 | 998.7 |
| 20260505150542 | 0 | 0.0 | 0.0 | 0.00 | 0.12 | 0.07 | 998.3 | ||
| 20260505140606 | 63 | 62 | 2.6 | 4.3 | 0.00 | 0.26 | 0.07 | 72 | 998.7 |